Погода в Выборге

Хотите узнать прогноз погоды в Выборге? Тогда Вам сюда: Погода в Выборге

Поиск расширенной информации на нашем сайте:

Полезная информация:

Новости сайта



02.01.2020
Опубликован Долгосрочный прогноз погоды по городам России и ближнего зарубежья на январь 2020 года.
Карты: Прогноз на январь и февраль 2020 года, Сравнение прогнозируемой аномалии приземной температуры воздуха на январь 2020 года по разным моделям.




Погода в Выборге - сегодня

Время (UTC), дата Ветер
(°,м/с) 
Видим.   Явления Облачность Т
(°С)
Тd
(°С)
f(%) Тe
(°С)
Pmin
(гПа)
dP
(гПа)
Po
(мм)
O2
(г/м3)
Тmin Tmax R s Состояние
почвы
12 09.08.20 200 (Ю) 20000 м    4/4 1000 м 
[Cu hum]
+23.6 +17.8 70 +37  1018.1  -0.8  762  279           
15 09.08.20 200 (Ю) 20000 м    8/8 600 м кучево-дожд. 
[Cb cap]
+23.5 +18.7 74 +39  1016.5  -1.6  761  278           
18 09.08.20 160 (Ю) 20000 м    4/3 600 м средняя 
[Cu hum|Ac trans]
+21.4 +19 86 +37  1016.1  -0.4  761  280    +26.1       
21 09.08.20 340 (С) 10 км    6/0 средняя 
[Ac trans]
+19.8 +17.5 87 +34  1016.5  0.4  761  282           
00 10.08.20 340 (С) 20000 м    ясно 
+18.4 +15.1 81 +27  1017.3  0.8  762  284           
03 10.08.20 340 (С) 20000 м    ясно 
+15.6 +12.9 84 +21  1017.8  0.5  762  288  +15.5         
06 10.08.20 340 (С) 20000 м    ясно 
+19.2 +12.9 67 +25  1018.3  0.5  763  285  +15.5        влажная 
09 10.08.20 350 (С) 4{11}  20000 м    ясно 
+20.6 +8 44 +21  1018.4  0.1  763  284           
12 10.08.20 360 (С) 4{10}  20000 м    3/0 средняя 
[Ac trans]
+21 +8 43 +21  1018.8  0.4  763  284           
15 10.08.20 010 (С) 20000 м    6/0 средняя 
[Ac trans]
+19.8 +8.2 47 +20  1019.3  0.5  763  285           
18 10.08.20 360 (С) 3{10}  20000 м    9/4 1500 м средняя 
[Sc|Ac trans]
+17.3 +8.4 56 +18  1020.2  0.9  764  288    +22       
21 10.08.20 010 (С) 10 км    8/0 средняя 
[Ac trans]
+15.2 +8.9 66 +17  1020.9  0.6  764  290           
00 11.08.20 350 (С) 20000 м    6/0 средняя, верхняя 
[Ac As|Ci fib]
+14.1 +9.3 73 +15  1021.5  0.6  765  291           
03 11.08.20 330 (СЗ) 20000 м    3/0 средняя 
[Ac trans]
+11.1 +9 87 +12  1022.1  0.6  765  295  +11.1         
06 11.08.20 010 (С) 20000 м    6/4 1000 м кучево-дожд., средняя, верхняя 
[Cb cap|Ac trans|Ci fib]
+15.3 +8.9 66 +15  1022  -0.1  765  290  +11.1        сухая 
09 11.08.20 010 (С) 4{10}  20000 м    8/8 1110 м кучево-дожд., средняя 
[Cb cap|Ac As]
+16.2 +7.7 57 +16  1022.2  0.2  765  290           
12 11.08.20 020 (С) 3{11}  20000 м    8/8 1000 м кучево-дожд. 
[Cb cap]
+17.7 +7.1 50 +18  1022.4  0.3  766  289           
15 11.08.20 020 (С) 20000 м    8/8 1500 м кучево-дожд. 
[Cb cap]
+16.4 +7.1 54 +17  1023  0.5  766  290           
18 11.08.20 010 (С) 20000 м    9/9 1500 м кучево-дожд. 
[Cb cap]
+14.9 +7.7 62 +16  1023.4  0.4  766  292    +18.7       
21 11.08.20 010 (С) 10 км    9/9 1500 м кучево-дожд. 
[Cb cap]
+13.9 +8.8 71 +14  1023.7  0.3  767  292           
00 12.08.20 350 (С) 10 км    10/10 1500 м кучево-дожд. 
[Cb cap]
+13.3 +9.4 77 +15  1023.9  0.2  767  293           
03 12.08.20 340 (С) 10 км    10/10 1500 м кучево-дожд. 
[Cb cap]
+12.8 +9.6 81 +14  1024.2  0.3  767  294  +12.7         
06 12.08.20 360 (С) 20000 м    9/9 1500 м кучево-дожд. 
[Cb cap]
+14.4 +9.6 73 +15  1024.2  767  292  +12.7        сухая 
09 12.08.20 350 (С) 20000 м    9/5 600 м кучево-дожд., средняя 
[Cb cap|Ac trans]
+15.9 +6.5 54 +17  1023.7  -0.5  767  291           
12 12.08.20 350 (С) 20000 м    9/4 600 м кучево-дожд., средняя 
[Cb cap|Ac trans]
+16.5 +6.3 51 +17  1022.9  -0.8  766  290           
Время (UTC), дата Ветер
(°,м/с) 
Видим.   Явления Облачность Т
(°С)
Тd
(°С)
f(%) Тe
(°С)
Pmin
(гПа)
dP
(гПа)
Po
(мм)
O2
(г/м3)
Тmin Tmax R s Состояние
почвы

Для получения пояснительной информации подведите курсор к названию столбца.

ПОГОДА в Выборге - архив

Всё, что Вы хотите узнать о погоде в Выборге - удобно и подробно!

Выберите нужную дату (начиная с 1 января 2019* года) и нажмите кнопку "Найти".
Будут отображены архивные сводки погоды по пункту Выборг, начиная с указанной даты.


Отображать данные в формате CSV (для использования в таблицах Excel)


Внимание! Наш архив погоды предназначен исключительно для личного некоммерческого использования в познавательных целях. Если Вам необходимы официальные справки о состоянии погоды (для производственных, юридических, коммерческих и т.п. целей), обращайтесь в органы Росгидромета.

*Примечание: данная дата относится к архиву по метеостанциям СССР (Россия, СНГ, Балтия).
Архив по метеостанциям Зарубежной Европы и Азии (кроме Китая) хранится 10 дней, по другим регионам земного шара (Китай, Африка, Америка, Австралия, Океания) - 1 день.

Выборг - район местоположения метеостанции


Название, широта, долгота, высота метеостанции:
Выборг 60.7°ш. 28.7°д. 13 м над ур. моря [Российская Федерация]

Дополнительная информация

В oтличие oт бoльшинства пoгoдных сайтoв мы публикуем пoдрoбную метеoинфoрмацию в детальнoм прoфессиoнальнoм фoрмате.

Характеристики температуры и влажнoсти вoздуха измеряются на высoте 2 м в тени вдали oт зданий и деревьев.
Скoрoсть ветра измеряется на высoте 10 м (на урoвне рoста челoвека скoрoсть ветра ниже в 1.5-2 раза). Если метеoстанция нахoдится в гoрoде или в лесу, тo скoрoсть ветра занижена на 2-4 м/с пo сравнению с oткрытым местoм. Скoрoсть ветра над акватoриями крупных рек и oзёр, а также на вершинах хoлмoв на 2-5 м/с выше, чем в oбычных услoвиях.
Атмoсфернoе давление в разных тoчках местнoсти мoжет значительнo oтличаться oт давления на метеoстанции, в зависимoсти oт услoвий рельефа (при пoдъёме на 10 м давление пoнижается примернo на 1 мм рт.ст.).